User: anonymous   Login
Location: Azul
(36.7830°S, 59.8500°W)
Time: 10:23:49
(UTC-03:00)
Language:

LilacSat-2 - Orbit

View from above orbital plane
View from above orbital plane
View from above satellite
View from above satellite

Ground track
Ground track

The orbit data is extracted from the following two-line orbital elements,

1 40908U 15049K   21295.13168586  .00001136  00000-0  64839-4 0  9992
2 40908  97.5095 293.4544 0017064 118.7369 305.9966 15.14639731336406
Epoch (UTC): 22 October 2021 03:09:37
Eccentricity: 0.0017064
inclination: 97.5095°
perigee height: 510 km
apogee height: 534 km
right ascension of ascending node: 293.4544°
argument of perigee: 118.7369°
revolutions per day: 15.14639731
mean anomaly at epoch: 305.9966°
orbit number at epoch: 33640

The dashed part of the orbit path shows where the satellite is in the earth's shadow,  

DLR